Wind_Speed
16 17 17 17 18 18 18 17 18 17 18 19 20 20 21 20 21 21 21 21 22 23 25 25 25 26 26 26 27 27 27 27 28 28 29 29 29 29 28 27 27 27 28
17 18 17 18 19 18 18 18 18 19 20 20 21 21 21 21 22 22 23 24 24 24 26 26 27 27 28 27 27 27 28 29 29 29 29 29 29 29 29 27 27 28 27
16 17 17 18 19 19 19 19 19 20 20 20 20 22 23 23 24 24 24 25 26 26 27 27 28 28 28 28 28 28 29 29 29 30 30 30 29 30 29 28 28 28 28
18 18 18 18 19 19 19 20 19 19 20 21 22 23 24 25 26 26 26 27 27 27 28 29 29 29 29 29 29 29 29 29 29 29 29 29 28 29 28 28 28 28 27
19 19 19 19 20 21 21 20 20 20 21 23 24 25 25 26 26 27 27 27 27 27 27 28 28 28 29 29 29 29 29 29 29 29 29 29 29 28 27 28 28 28 28
19 20 20 21 21 22 23 23 22 22 23 24 25 26 27 27 28 28 28 28 28 27 27 28 28 28 29 29 29 29 30 29 29 29 29 30 30 29 28 28 28 28 29
20 20 20 21 22 22 22 23 23 23 24 25 26 27 28 29 30 29 30 29 29 29 29 29 29 29 28 28 29 29 29 29 29 30 30 30 30 30 30 29 29 29 29
20 21 21 22 23 23 23 23 23 24 25 25 26 28 29 30 31 31 30 30 30 30 30 29 30 29 29 29 29 29 29 29 29 30 30 30 30 30 30 30 30 30 29
19 20 22 23 23 23 23 23 24 24 25 26 27 28 28 28 28 29 30 30 29 29 29 28 28 28 29 29 29 29 29 28 29 29 29 30 30 30 30 30 30 30 29
18 20 22 22 22 22 23 23 23 24 25 26 26 26 26 26 26 25 26 26 27 28 28 27 27 28 28 28 28 28 28 28 29 29 30 30 30 29 29 29 29 29 29
18 19 20 21 22 22 21 21 22 23 23 23 24 24 24 24 23 23 23 23 23 24 24 25 26 27 27 27 27 28 28 28 28 29 29 28 28 29 29 29 29 29 28
19 19 20 21 21 20 20 21 21 22 22 22 22 22 22 22 21 21 21 21 21 22 22 23 24 25 25 26 27 27 27 26 26 26 26 27 27 27 27 28 27 28 28
19 19 20 20 19 19 20 20 21 22 22 22 22 21 21 21 20 20 20 20 21 21 21 22 22 23 23 24 24 25 25 25 25 25 25 25 26 26 26 26 26 26 27
18 18 17 18 18 18 19 19 20 21 21 22 21 21 20 20 19 18 18 18 19 19 19 20 20 21 21 22 22 23 23 23 22 22 23 23 23 23 24 24 24 24 25
16 17 18 17 17 17 18 19 19 20 20 20 20 19 18 17 17 17 17 17 17 17 18 18 18 19 20 20 20 20 21 21 20 20 20 20 20 20 21 21 22 22 23
16 17 17 17 17 16 17 17 18 18 18 18 17 17 16 15 15 15 15 15 15 16 16 15 15 16 16 16 17 17 17 17 17 17 17 17 17 17 17 18 18 19 19
16 17 17 16 16 16 16 17 16 17 17 16 15 14 14 13 13 13 14 14 14 14 13 13 13 14 13 13 12 12 12 13 13 13 13 13 13 14 14 15 15 15 16
16 16 16 16 15 15 15 15 15 16 16 15 15 14 13 13 13 13 13 13 12 12 11 11 11 10 10 9 10 9 9 9 9 9 9 9 10 11 11 11 11 12 12
15 15 15 14 14 13 13 14 14 15 14 13 13 12 12 12 12 11 11 11 11 11 10 9 8 7 7 7 6 5 5 5 6 6 6 6 6 6 7 7 8 9 8
14 13 13 12 12 12 13 13 13 12 11 10 11 11 11 10 10 9 9 9 9 9 8 7 6 5 5 4 4 3 3 3 3 3 3 3 2 2 3 4 4 5 5
13 13 12 12 11 11 11 11 11 9 9 10 10 9 9 9 8 8 7 7 7 7 7 7 6 5 4 4 4 3 3 3 2 2 2 2 1 1 0 1 1 2 2
12 11 11 10 9 9 8 8 8 8 9 9 8 8 8 7 7 7 7 7 7 7 7 7 7 6 5 5 5 5 5 5 5 6 6 5 5 5 4 4 4 3 3
10 9 8 8 7 6 6 6 7 7 7 7 7 7 7 7 7 7 7 7 7 8 8 8 8 7 7 7 8 9 9 9 9 8 8 8 9 8 8 7 7 6 6
8 7 7 6 5 6 6 6 7 7 6 6 6 6 6 6 7 7 7 8 8 8 9 9 9 9 9 10 10 10 11 11 11 11 10 10 10 10 10 9 9 8 8
8 7 7 6 6 6 6 6 6 6 6 6 6 7 7 7 8 8 8 8 9 10 11 11 11 12 12 12 12 12 13 14 14 14 13 13 13 13 13 13 12 12 11
8 7 7 6 5 5 6 6 6 6 7 6 7 7 8 8 9 9 10 10 10 11 11 12 13 13 14 14 14 15 15 15 15 15 15 15 15 14 14 13 13 13 13
Wind_Direction
278 281 283 285 288 290 291 284 286 282 275 275 275 275 276 276 276 276 275 274 274 274 272 271 270 269 268 268 269 269 267 267 266 265 264 264 265 264 263 263 260 257 257
283 282 284 287 289 289 290 288 283 282 278 277 276 277 276 277 277 275 273 273 273 273 272 271 269 269 269 267 267 267 267 267 266 265 264 263 265 263 262 261 259 257 256
284 284 285 290 288 288 288 287 285 282 278 277 276 277 279 279 277 276 274 274 273 273 273 272 270 269 269 269 268 268 268 267 266 266 265 264 264 262 261 261 260 258 257
281 284 286 291 289 287 287 285 284 282 279 278 279 279 280 278 278 277 276 276 275 273 272 272 271 271 270 270 270 270 270 268 266 266 265 264 264 261 260 261 261 259 257
281 284 285 287 286 284 285 283 282 283 282 281 280 281 281 281 278 277 277 277 275 274 273 273 273 272 271 270 271 270 270 267 267 266 264 263 261 259 258 259 260 260 259
283 285 286 284 284 286 287 285 283 282 284 284 283 283 282 281 280 278 277 276 275 274 274 274 273 273 271 270 271 270 270 268 267 266 265 263 261 259 258 258 258 259 258
283 285 286 286 287 288 288 288 283 284 285 285 285 284 283 282 280 278 276 274 275 275 275 274 274 274 272 271 271 270 269 268 267 266 264 263 262 261 259 258 258 259 260
282 284 285 287 288 289 289 289 285 286 288 288 286 286 285 283 283 280 277 276 275 275 274 274 273 273 272 271 270 269 269 267 266 265 263 262 262 261 260 259 259 259 259
285 287 289 289 290 291 291 288 288 290 291 290 289 288 287 285 284 281 277 276 276 275 276 273 273 273 273 271 270 269 269 267 266 265 265 263 261 260 259 259 259 259 258
289 291 292 292 293 292 290 290 292 293 294 294 293 292 291 289 286 283 280 278 277 277 278 275 274 273 273 273 271 270 268 266 265 264 263 263 261 259 258 258 258 258 258
290 293 294 295 296 296 295 295 297 298 298 297 296 296 295 292 290 287 285 283 282 280 280 278 277 275 274 273 272 270 268 267 266 263 261 261 259 259 258 258 257 258 258
291 291 294 296 297 297 297 298 300 300 300 299 297 298 297 294 292 291 290 288 286 285 284 282 280 278 277 275 273 271 269 268 267 264 262 261 260 258 258 257 256 256 257
292 293 294 297 297 295 296 299 301 301 301 301 300 300 299 297 295 293 292 292 290 289 288 286 283 281 279 277 275 272 270 269 267 265 264 263 262 259 258 257 257 257 256
297 299 298 299 298 296 297 299 301 301 301 302 301 301 301 300 298 297 297 296 294 293 292 290 287 286 284 279 277 275 272 270 268 264 264 264 263 261 258 257 258 258 257
299 300 299 298 296 296 299 301 303 304 304 304 303 302 302 302 303 302 302 300 299 299 298 296 293 291 288 284 280 276 271 270 269 266 264 264 262 262 259 258 259 259 258
301 302 299 298 297 298 300 303 304 306 307 307 307 306 305 305 308 308 306 305 304 305 303 300 299 296 293 291 283 278 274 270 267 265 263 262 261 261 259 257 258 259 258
303 302 300 298 300 301 300 302 306 310 311 312 314 313 311 309 311 313 312 311 309 309 307 304 305 305 304 300 297 288 279 272 268 265 261 259 258 257 257 255 256 257 257
304 303 302 301 300 301 302 304 306 311 314 315 318 317 315 314 314 316 316 314 315 316 316 315 313 312 311 307 304 300 288 277 270 266 262 260 259 256 254 252 256 257 258
307 307 304 302 300 302 304 305 308 314 316 318 321 323 322 321 320 320 320 321 322 320 319 320 321 321 322 323 319 314 302 289 279 275 269 266 257 251 249 252 260 260 261
309 306 303 304 304 307 309 310 314 317 318 324 329 332 332 331 332 332 331 332 333 334 335 336 337 339 344 350 348 336 332 320 306 289 270 252 242 251 263 269 270 268 267
313 311 311 311 311 312 313 314 319 323 328 334 336 338 340 342 344 345 350 353 356 1 6 9 14 14 19 19 28 33 35 43 50 76 91 81 95 118 217 285 290 302 301
319 318 317 317 318 320 322 325 327 331 338 342 346 351 353 355 359 6 13 17 20 23 29 31 34 40 43 52 57 62 68 79 92 96 95 88 81 81 82 77 67 59 49
330 330 324 324 328 332 335 337 342 344 347 355 1 5 9 15 21 28 30 32 36 41 44 44 45 51 58 70 74 78 83 90 95 95 95 94 90 87 83 79 78 76 69
346 348 347 345 350 352 349 347 350 355 2 10 14 16 22 30 36 42 45 50 54 54 53 54 59 66 75 85 87 89 89 89 89 92 94 95 91 87 86 84 79 75 71
354 353 354 358 0 2 3 3 7 16 23 27 31 34 40 47 52 54 59 65 67 68 68 70 73 78 82 87 88 88 89 89 89 92 91 90 87 85 83 80 77 73 70
8 12 13 17 19 22 24 28 36 41 40 43 51 55 58 61 62 69 75 77 76 75 77 76 79 82 84 86 88 89 91 89 88 91 89 87 85 83 80 76 72 69 66
Height
5846 5845 5844 5844 5842 5842 5842 5842 5841 5840 5840 5839 5839 5839 5839 5839 5839 5838 5838 5837 5836 5836 5835 5834 5834 5834 5834 5834 5835 5834 5834 5835 5835 5835 5836 5837 5837 5838 5839 5839 5840 5841 5841
5842 5841 5841 5840 5839 5838 5838 5837 5836 5835 5835 5834 5833 5833 5833 5833 5833 5832 5831 5831 5830 5829 5828 5828 5828 5827 5827 5827 5827 5827 5827 5827 5827 5828 5828 5829 5830 5831 5831 5832 5833 5833 5834
5838 5838 5838 5837 5836 5835 5834 5832 5831 5830 5829 5829 5828 5828 5827 5827 5827 5826 5825 5824 5823 5822 5821 5821 5820 5820 5820 5819 5819 5819 5819 5820 5820 5820 5820 5821 5822 5823 5824 5824 5825 5826 5827
5835 5834 5834 5833 5832 5831 5830 5828 5827 5826 5825 5824 5823 5822 5821 5821 5820 5819 5818 5816 5815 5815 5814 5813 5813 5812 5812 5811 5811 5812 5812 5812 5812 5812 5812 5813 5814 5815 5816 5817 5818 5819 5820
5831 5830 5829 5829 5828 5827 5825 5824 5822 5821 5820 5818 5817 5816 5815 5814 5813 5812 5810 5809 5808 5807 5806 5805 5804 5804 5804 5803 5803 5803 5804 5804 5804 5804 5805 5806 5806 5807 5809 5810 5811 5811 5812
5827 5826 5825 5824 5823 5822 5820 5819 5817 5816 5814 5813 5811 5809 5808 5807 5805 5804 5802 5801 5800 5799 5798 5797 5796 5796 5796 5795 5795 5795 5795 5796 5796 5797 5797 5798 5799 5800 5801 5802 5803 5804 5805
5822 5821 5820 5819 5817 5816 5814 5812 5811 5810 5808 5806 5804 5803 5801 5799 5797 5796 5794 5793 5792 5791 5790 5789 5788 5788 5788 5787 5787 5787 5787 5787 5788 5788 5789 5789 5791 5792 5793 5794 5795 5797 5798
5818 5817 5816 5814 5812 5810 5809 5807 5805 5803 5801 5799 5797 5795 5793 5791 5788 5786 5785 5784 5783 5783 5782 5781 5780 5780 5779 5779 5779 5779 5779 5779 5779 5780 5780 5781 5782 5784 5785 5787 5788 5789 5790
5813 5812 5811 5809 5807 5805 5803 5801 5799 5796 5794 5792 5790 5787 5784 5782 5780 5777 5776 5775 5774 5774 5773 5772 5771 5771 5771 5770 5770 5770 5770 5770 5771 5771 5772 5773 5774 5776 5777 5779 5780 5782 5783
5809 5807 5805 5803 5801 5799 5797 5795 5792 5790 5787 5785 5782 5779 5777 5775 5772 5770 5769 5767 5766 5765 5764 5763 5763 5763 5762 5762 5762 5762 5762 5762 5763 5763 5764 5765 5766 5767 5769 5771 5772 5774 5775
5804 5802 5800 5797 5795 5793 5790 5788 5786 5783 5780 5778 5775 5773 5770 5767 5766 5764 5762 5760 5759 5758 5757 5756 5755 5755 5754 5754 5754 5754 5754 5754 5755 5755 5756 5757 5758 5759 5761 5763 5764 5766 5768
5799 5797 5795 5792 5790 5787 5785 5782 5780 5777 5775 5772 5769 5767 5764 5762 5760 5758 5756 5754 5753 5751 5750 5749 5748 5747 5747 5746 5746 5746 5746 5746 5747 5747 5748 5749 5750 5752 5753 5755 5757 5759 5760
5794 5792 5790 5787 5785 5782 5780 5778 5775 5772 5770 5767 5764 5761 5759 5756 5754 5752 5750 5748 5747 5745 5743 5742 5741 5740 5739 5739 5739 5739 5739 5739 5740 5740 5741 5742 5743 5745 5746 5748 5750 5751 5753
5789 5787 5785 5783 5780 5778 5775 5773 5771 5768 5765 5762 5759 5756 5753 5751 5749 5747 5745 5743 5741 5739 5738 5736 5735 5734 5733 5732 5732 5732 5732 5732 5733 5734 5735 5736 5737 5738 5740 5742 5743 5745 5746
5784 5782 5780 5778 5775 5773 5771 5768 5766 5763 5760 5757 5754 5751 5748 5746 5744 5742 5740 5738 5736 5734 5732 5731 5729 5728 5727 5726 5725 5725 5726 5726 5727 5728 5729 5730 5731 5732 5734 5736 5737 5738 5740
5780 5777 5775 5773 5771 5769 5766 5764 5761 5758 5755 5753 5749 5747 5744 5742 5740 5738 5736 5734 5732 5730 5728 5726 5725 5723 5722 5721 5720 5720 5720 5721 5722 5723 5724 5725 5726 5727 5729 5730 5731 5733 5734
5775 5773 5770 5768 5766 5764 5762 5760 5757 5754 5752 5749 5746 5743 5741 5739 5737 5735 5733 5731 5729 5727 5725 5723 5722 5720 5719 5717 5716 5716 5716 5716 5717 5718 5720 5721 5722 5723 5724 5726 5727 5728 5729
5771 5768 5766 5764 5762 5759 5757 5755 5753 5751 5748 5745 5743 5740 5738 5736 5734 5732 5730 5728 5726 5724 5723 5721 5719 5718 5716 5715 5714 5713 5713 5714 5715 5716 5717 5718 5719 5720 5721 5722 5723 5724 5725
5766 5764 5761 5759 5757 5755 5753 5751 5749 5747 5745 5742 5740 5738 5736 5734 5732 5730 5728 5726 5724 5722 5721 5719 5717 5716 5714 5713 5713 5712 5712 5713 5713 5714 5715 5716 5717 5718 5719 5720 5721 5721 5722
5762 5760 5757 5755 5753 5752 5750 5748 5746 5744 5742 5739 5738 5735 5733 5732 5730 5728 5726 5725 5723 5721 5720 5718 5716 5715 5714 5713 5712 5712 5712 5713 5713 5713 5714 5715 5716 5717 5718 5719 5719 5719 5720
5758 5756 5754 5752 5750 5749 5747 5745 5744 5742 5740 5738 5736 5734 5732 5730 5729 5727 5726 5724 5723 5721 5719 5718 5716 5715 5714 5713 5713 5713 5713 5713 5713 5714 5715 5715 5716 5717 5718 5718 5719 5719 5719
5755 5753 5751 5749 5748 5746 5745 5743 5742 5740 5738 5737 5735 5733 5731 5730 5728 5727 5726 5724 5723 5722 5720 5719 5718 5716 5715 5715 5715 5715 5715 5715 5715 5716 5716 5717 5718 5718 5719 5719 5719 5720 5720
5753 5751 5749 5748 5746 5745 5744 5742 5741 5739 5737 5736 5734 5733 5732 5730 5729 5728 5727 5725 5724 5723 5722 5721 5719 5718 5717 5717 5717 5717 5717 5717 5718 5718 5719 5719 5720 5720 5721 5721 5721 5721 5722
5752 5750 5748 5747 5745 5744 5743 5742 5740 5739 5737 5736 5735 5734 5732 5731 5730 5729 5728 5727 5726 5725 5724 5723 5722 5721 5720 5720 5720 5720 5720 5721 5721 5721 5722 5722 5723 5723 5723 5723 5723 5723 5723
5751 5749 5748 5746 5745 5744 5743 5742 5740 5739 5738 5737 5736 5734 5733 5732 5732 5731 5730 5729 5728 5728 5727 5726 5725 5725 5724 5724 5723 5724 5724 5724 5724 5725 5725 5726 5726 5726 5726 5726 5726 5726 5726
5751 5750 5748 5747 5745 5744 5743 5742 5741 5740 5739 5738 5737 5736 5735 5734 5734 5733 5732 5732 5731 5731 5730 5729 5729 5728 5728 5728 5728 5728 5728 5728 5728 5729 5729 5729 5729 5730 5730 5730 5730 5729 5729